sat.trackr.live / text

‹ back to catalog

ONEWEB-0378

NORAD 49304 · 2021-090AB

PAYLOAD ACTIVE UNKNOWN

§ Identity

Operator
Country
UK
Launch date
2021-10-14
Launch site
VOSTO
Launch vehicle
Mass (kg)
RCS (m²)

Purposes: comms

External: N2YO · Heavens-Above · Gunter

§ Orbital elements

Epoch: 2026-09-19T19:16:10.097760Z

Period
109.03 min
Inclination
87.9142°
Eccentricity
0.0002112
Mean motion
13.20772307 rev/d
Perigee alt
1,180.2 km
Apogee alt
1,183.4 km
Semi-major
7,559.9 km
B*
1.2952e-4
RAAN
255.5634°
Arg perigee
88.7651°
Mean anomaly
271.3724°
Rev number
24,227

§ Raw data

ONEWEB-03781 49304U 21090AB  26262.80289465  .00000066  00000+0  12952-3 0  99952 49304  87.9142 255.5634 0002112  88.7651 271.3724 13.20772307242279

JSON: /api/v1/satellites/49304 · /tle

For live sub-satellite position, see the globe view (requires WebGL).

§ Visibility from observer

Set your observer location to see the next 7 days of passes ≥ 10°. The values pass through the URL so the page stays shareable.

No JS? Fill the form by hand. The geolocation button needs JavaScript.